Weather History for KFDR - September, 2013

Change the Weather History Date:

Tuesday, September 10, 2013

  Actual Average (KLTS) Record (KLTS)
Temperature  
Mean Temperature 82 °F -  
Max Temperature 95 °F 87 °F 98 °F (1999)
Min Temperature 72 °F 64 °F 50 °F (2001)
Cooling Degree Days 18    
Growing Degree Days 32 (Base 50)    
Moisture  
Dew Point 61 °F    
Average Humidity 49    
Maximum Humidity 73    
Minimum Humidity 31    
Precipitation  
Precipitation 0.00 in - - ()
Sea Level Pressure  
Sea Level Pressure 29.96 in    
Wind  
Wind Speed 12 mph (SSE)    
Max Wind Speed 18 mph    
Max Gust Speed 28 mph    
Visibility 10 miles    
Events Thunderstorm    
Averages and records for this station are not official NWS values.
T = Trace of Precipitation, MM = Missing Value Source: NWS Daily Summary

Daily Weather History Graph

Daily Weather History Graph

Search for Another Location

Airport or City:

Trip Planner

Search our weather history database for the weather conditions in past years. The results will help you decide how hot, cold, wet, or windy it might be!

Date:

Astronomy

Sep. 10, 2013 Rise Set
Actual Time 7:15 AM CDT 7:49 PM CDT
Civil Twilight 6:50 AM CDT 8:14 PM CDT
Nautical Twilight 6:20 AM CDT 8:44 PM CDT
Astronomical Twilight 5:50 AM CDT 9:14 PM CDT
Moon 12:27 PM CDT (9/10) 11:09 PM CDT (9/10)
Length of Visible Light 13h 24m
Length of Day
12h 33m
Waxing Crescent, 28% of the Moon is Illuminated
Sep 10
Waxing Crescent
Sep 12
First Quarter
Sep 19
Full
Sep 26
Last Quarter
Oct 4
New

Hourly Weather History & Observations

Time (CDT) Temp. Heat Index Dew Point Humidity Pressure Visibility Wind Dir Wind Speed Gust Speed Precip Events Conditions
12:53 AM 81.0 °F 81.6 °F 60.1 °F 49% 29.88 in 10.0 mi SSE 12.7 mph - N/A   Clear
1:53 AM 80.1 °F 81.1 °F 61.0 °F 52% 29.90 in 10.0 mi SSE 12.7 mph - N/A   Clear
2:53 AM 79.0 °F - 63.0 °F 58% 29.91 in 10.0 mi South 10.4 mph - N/A   Clear
3:53 AM 75.9 °F - 63.0 °F 64% 29.92 in 10.0 mi South 8.1 mph - N/A   Clear
4:53 AM 75.0 °F - 63.0 °F 66% 29.93 in 10.0 mi South 8.1 mph - N/A   Clear
5:53 AM 73.0 °F - 62.1 °F 68% 29.94 in 10.0 mi SSE 6.9 mph - N/A   Clear
6:53 AM 72.0 °F - 63.0 °F 73% 29.96 in 10.0 mi SE 6.9 mph - N/A   Scattered Clouds
7:53 AM 72.0 °F - 63.0 °F 73% 29.99 in 10.0 mi SE 8.1 mph - N/A   Mostly Cloudy
8:53 AM 75.9 °F - 64.0 °F 67% 30.00 in 10.0 mi SSE 11.5 mph - N/A   Clear
9:53 AM 81.0 °F 82.7 °F 64.9 °F 58% 30.01 in 10.0 mi South 15.0 mph - N/A   Clear
10:53 AM 86.0 °F 87.3 °F 64.0 °F 48% 30.02 in 10.0 mi South 11.5 mph 20.7 mph N/A   Clear
11:53 AM 87.1 °F 88.3 °F 64.0 °F 46% 30.03 in 10.0 mi South 13.8 mph 24.2 mph N/A   Scattered Clouds
12:53 PM 88.0 °F 88.4 °F 62.1 °F 42% 30.01 in 10.0 mi South 13.8 mph 21.9 mph N/A   Partly Cloudy
1:53 PM 90.0 °F 90.3 °F 62.1 °F 39% 29.99 in 10.0 mi SSE 16.1 mph 20.7 mph N/A   Scattered Clouds
2:53 PM 90.0 °F 90.0 °F 61.0 °F 38% 29.97 in 10.0 mi SSE 13.8 mph - N/A   Mostly Cloudy
3:53 PM 93.9 °F 94.8 °F 62.1 °F 35% 29.94 in 10.0 mi SE 18.4 mph 24.2 mph N/A   Scattered Clouds
4:53 PM 93.9 °F 93.6 °F 60.1 °F 32% 29.92 in 10.0 mi SSE 17.3 mph 27.6 mph N/A   Scattered Clouds
5:53 PM 91.9 °F 91.5 °F 60.1 °F 34% 29.92 in 10.0 mi SSE 15.0 mph 20.7 mph N/A   Partly Cloudy
6:13 PM 89.6 °F 88.1 °F 57.2 °F 33% 29.97 in 10.0 mi South 15.0 mph - N/A Thunderstorm Mostly Cloudy
6:28 PM 91.4 °F 89.9 °F 57.2 °F 31% 29.97 in 10.0 mi SSE 13.8 mph - N/A   Scattered Clouds
6:53 PM 91.9 °F 90.8 °F 57.9 °F 32% 29.92 in 10.0 mi SSE 15.0 mph - N/A   Partly Cloudy
7:53 PM 89.1 °F 88.0 °F 57.9 °F 35% 29.93 in 10.0 mi SSE 10.4 mph - N/A   Partly Cloudy
8:53 PM 84.9 °F 85.4 °F 62.1 °F 46% 29.96 in 10.0 mi SSE 15.0 mph - N/A   Clear
9:53 PM 82.9 °F 83.7 °F 62.1 °F 49% 29.98 in 10.0 mi SE 11.5 mph - N/A   Clear
10:53 PM 82.0 °F 82.7 °F 61.0 °F 49% 29.99 in 10.0 mi South 9.2 mph - N/A   Clear
11:53 PM 80.1 °F 81.1 °F 61.0 °F 52% 29.99 in 10.0 mi South 9.2 mph - N/A   Clear